User: anonymous   Login
Location: Unspecified
(0.0000°N, 0.0000°E)
Time: 08:07:10
(UTC+00:00)
Language:

DIAMOND BLUE - Orbit

View from above orbital plane
View from above orbital plane
View from above satellite
View from above satellite

Ground track
Ground track

The orbit data is extracted from the following two-line orbital elements,

1 42786U 17036X   17348.10859391  .00001186  00000-0  56473-4 0  9998
2 42786  97.4285  45.6792 0012495  13.3532 346.8031 15.21046833 26360
Epoch (UTC): 14 December 2017 02:36:22
Eccentricity: 0.0012495
inclination: 97.4285°
perigee height: 494 km
apogee height: 511 km
right ascension of ascending node: 45.6792°
argument of perigee: 13.3532°
revolutions per day: 15.21046833
mean anomaly at epoch: 346.8031°
orbit number at epoch: 2636

The dashed part of the orbit path shows where the satellite is in the earth's shadow,  

DLR